Date String (YYYY-MM-DD hh:mm:ss) UTC,Instrument flags,Ambient pressure (hPa),Sample flow (lpm),Bypass flow (lpm),Sample temperature (°C),Ambient temperature (°C),ASC tube jacket temperature (°C),LED temperature (°C),Box temperature (°C),Sample RH (%),Span deviation,Mass concentration (μg/m³),Mass concentration (μg/m³),Mass concentration (μg/m³)
DateTimeUTC,F1_M11,P_M11,Q1_M11,Q2_M11,T1_M11,T2_M11,T3_M11,T4_M11,T5_M11,U1_M11,ZSPAN_M11,X0_M11,X2_M11,X1_M11
2023-05-01 04:00:00,,0830.0,5.00,0.00,29.9,28.5,00.0,38.3,31.4,12.5,0000.0,0014.39,0005.35,0003.63
2023-05-01 04:01:00,,0830.0,5.00,0.00,29.9,28.4,00.0,38.3,31.4,12.3,0000.0,0013.57,0005.25,0003.61
2023-05-01 04:02:00,,0830.0,4.99,0.00,29.9,28.5,00.0,38.3,31.4,12.3,0000.0,0013.41,0005.16,0003.59
2023-05-01 04:03:00,,0830.1,4.99,0.00,29.9,28.5,00.0,38.3,31.4,12.4,0000.0,0012.99,0005.11,0003.58
2023-05-01 04:04:00,,0830.0,5.00,0.00,29.9,28.5,00.0,38.3,31.4,12.5,0000.0,0013.05,0005.05,0003.58
2023-05-01 04:05:00,,0829.9,5.03,0.00,29.9,28.4,00.0,38.3,31.3,12.5,0000.0,0013.20,0005.07,0003.57
2023-05-01 04:06:00,,0829.9,5.00,0.00,29.9,28.4,00.0,38.3,31.4,12.5,0000.0,0013.28,0004.96,0003.57
2023-05-01 04:07:00,,0829.9,4.98,0.00,29.9,28.4,00.0,38.3,31.4,12.5,0000.0,0013.76,0004.98,0003.55
2023-05-01 04:08:00,,0829.9,4.99,0.00,29.9,28.4,00.0,38.4,31.4,12.5,0000.0,0014.16,0005.05,0003.54
2023-05-01 04:09:00,,0830.0,5.00,0.00,29.9,28.4,00.0,38.3,31.4,12.5,0000.0,0014.58,0005.13,0003.54
2023-05-01 04:10:00,,0830.0,5.01,0.00,29.9,28.4,00.0,38.3,31.4,12.5,0000.0,0013.98,0005.10,0003.53
2023-05-01 04:11:00,,0830.0,5.00,0.00,29.9,28.4,00.0,38.4,31.4,12.4,0000.0,0013.47,0005.07,0003.53
2023-05-01 04:12:00,,0830.0,4.98,0.00,29.9,28.5,00.0,38.4,31.4,12.5,0000.0,0014.01,0005.08,0003.52
2023-05-01 04:13:00,,0830.0,5.00,0.00,29.9,28.5,00.0,38.4,31.4,12.5,0000.0,0014.43,0005.17,0003.53
2023-05-01 04:14:00,,0829.9,5.00,0.00,29.9,28.4,00.0,38.4,31.4,12.6,0000.0,0014.67,0005.14,0003.53
2023-05-01 04:15:00,,0829.9,5.01,0.00,29.9,28.4,00.0,38.4,31.4,12.7,0000.0,0014.64,0005.15,0003.52
2023-05-01 04:16:00,,0829.9,5.00,0.00,29.9,28.4,00.0,38.4,31.4,12.7,0000.0,0014.15,0005.18,0003.51
2023-05-01 04:17:00,,0829.9,5.01,0.00,29.9,28.3,00.0,38.4,31.4,12.8,0000.0,0014.14,0005.20,0003.51
2023-05-01 04:18:00,,0829.9,5.00,0.00,29.9,28.2,00.0,38.4,31.3,13.0,0000.0,0013.55,0005.15,0003.51
2023-05-01 04:19:00,,0829.9,4.99,0.00,29.8,28.1,00.0,38.3,31.2,13.0,0000.0,0014.33,0005.17,0003.53
2023-05-01 04:20:00,,0829.9,5.01,0.00,29.8,28.0,00.0,38.3,31.2,13.0,0000.0,0014.41,0005.12,0003.54
2023-05-01 04:21:00,,0829.9,5.01,0.00,29.8,28.0,00.0,38.3,31.2,13.1,0000.0,0014.98,0005.17,0003.55
2023-05-01 04:22:00,,0829.9,5.00,0.00,29.8,28.0,00.0,38.3,31.2,13.1,0000.0,0015.56,0005.24,0003.55
2023-05-01 04:23:00,,0829.9,5.00,0.00,29.8,28.0,00.0,38.3,31.2,13.2,0000.0,0015.40,0005.31,0003.56
2023-05-01 04:24:00,,0829.8,5.01,0.00,29.8,28.1,00.0,38.3,31.3,13.0,0000.0,0015.69,0005.26,0003.53
2023-05-01 04:25:00,,0829.8,5.00,0.00,29.8,28.2,00.0,38.3,31.3,12.8,0000.0,0016.09,0005.27,0003.53
2023-05-01 04:26:00,,0829.8,4.99,0.00,29.8,28.2,00.0,38.3,31.3,12.8,0000.0,0016.65,0005.26,0003.53
2023-05-01 04:27:00,,0829.8,4.99,0.00,29.8,28.3,00.0,38.3,31.3,12.6,0000.0,0017.23,0005.24,0003.53
2023-05-01 04:28:00,,0829.8,5.00,0.00,29.8,28.3,00.0,38.3,31.3,12.6,0000.0,0017.47,0005.21,0003.52
2023-05-01 04:29:00,,0829.8,5.01,0.00,29.8,28.3,00.0,38.3,31.3,12.6,0000.0,0017.19,0005.17,0003.51
2023-05-01 04:30:00,,0829.8,4.99,0.00,29.8,28.3,00.0,38.3,31.3,12.6,0000.0,0017.24,0005.12,0003.48
2023-05-01 04:31:00,,0829.8,5.00,0.00,29.8,28.3,00.0,38.3,31.4,12.6,0000.0,0017.66,0005.14,0003.46
2023-05-01 04:32:00,,0829.8,5.01,0.00,29.9,28.3,00.0,38.3,31.4,12.6,0000.0,0017.79,0005.09,0003.43
2023-05-01 04:33:00,,0829.8,5.00,0.00,29.9,28.4,00.0,38.3,31.3,12.6,0000.0,0017.54,0005.05,0003.42
2023-05-01 04:34:00,,0829.8,5.00,0.00,29.9,28.4,00.0,38.3,31.3,12.6,0000.0,0017.32,0005.04,0003.42
2023-05-01 04:35:00,,0829.8,4.99,0.00,29.9,28.4,00.0,38.3,31.3,12.5,0000.0,0017.53,0005.12,0003.43
2023-05-01 04:36:00,,0829.8,5.00,0.00,29.9,28.3,00.0,38.3,31.4,12.5,0000.0,0017.13,0005.17,0003.42
2023-05-01 04:37:00,,0829.7,5.01,0.00,29.9,28.3,00.0,38.3,31.3,12.6,0000.0,0016.54,0005.17,0003.42
2023-05-01 04:38:00,,0829.7,5.00,0.00,29.9,28.3,00.0,38.3,31.3,12.5,0000.0,0016.17,0005.18,0003.42
2023-05-01 04:39:00,,0829.7,4.99,0.00,29.9,28.3,00.0,38.3,31.3,12.6,0000.0,0015.67,0005.22,0003.42
2023-05-01 04:40:00,,0829.7,5.01,0.00,29.8,28.2,00.0,38.3,31.3,12.6,0000.0,0015.71,0005.25,0003.41
2023-05-01 04:41:00,,0829.7,5.00,0.00,29.8,28.2,00.0,38.3,31.2,12.6,0000.0,0014.78,0005.25,0003.41
2023-05-01 04:42:00,,0829.7,5.00,0.00,29.8,28.2,00.0,38.3,31.2,12.6,0000.0,0013.89,0005.20,0003.41
2023-05-01 04:43:00,,0829.7,4.99,0.00,29.8,28.1,00.0,38.3,31.2,12.6,0000.0,0013.34,0005.25,0003.42
2023-05-01 04:44:00,,0829.7,4.99,0.00,29.8,28.1,00.0,38.3,31.2,12.3,0000.0,0013.06,0005.24,0003.40
2023-05-01 04:45:00,,0829.8,5.00,0.00,29.8,28.1,00.0,38.3,31.2,12.3,0000.0,0012.79,0005.15,0003.37
2023-05-01 04:46:00,,0829.7,5.01,0.00,29.8,28.1,00.0,38.3,31.2,12.3,0000.0,0011.65,0005.05,0003.35
2023-05-01 04:47:00,,0829.7,5.01,0.00,29.8,28.1,00.0,38.3,31.2,12.4,0000.0,0011.58,0005.00,0003.34
2023-05-01 04:48:00,,0829.7,4.99,0.00,29.8,28.1,00.0,38.3,31.3,12.3,0000.0,0011.53,0004.98,0003.32
2023-05-01 04:49:00,,0829.7,4.99,0.00,29.8,28.1,00.0,38.3,31.3,12.4,0000.0,0011.26,0004.90,0003.30
2023-05-01 04:50:00,,0829.7,5.00,0.00,29.8,28.2,00.0,38.2,31.3,12.4,0000.0,0011.48,0004.85,0003.28
2023-05-01 04:51:00,,0829.7,4.99,0.00,29.8,28.2,00.0,38.2,31.3,12.4,0000.0,0011.55,0004.85,0003.26
2023-05-01 04:52:00,,0829.7,5.02,0.00,29.8,28.2,00.0,38.2,31.3,12.3,0000.0,0011.24,0004.78,0003.24
2023-05-01 04:53:00,,0829.7,4.99,0.00,29.8,28.2,00.0,38.2,31.3,12.4,0000.0,0011.22,0004.77,0003.22
2023-05-01 04:54:00,,0829.7,4.98,0.00,29.8,28.2,00.0,38.2,31.3,12.4,0000.0,0012.16,0004.72,0003.20
2023-05-01 04:55:00,,0829.7,4.99,0.00,29.8,28.2,00.0,38.2,31.3,12.4,0000.0,0012.79,0004.76,0003.20
2023-05-01 04:56:00,,0829.7,5.02,0.00,29.8,28.2,00.0,38.2,31.3,12.4,0000.0,0012.94,0004.77,0003.20
2023-05-01 04:57:00,,0829.7,5.01,0.00,29.8,28.3,00.0,38.2,31.3,12.4,0000.0,0012.95,0004.78,0003.20
2023-05-01 04:58:00,,0829.7,4.99,0.00,29.8,28.3,00.0,38.2,31.3,12.3,0000.0,0012.51,0004.72,0003.18
2023-05-01 04:59:00,,0829.7,4.99,0.00,29.8,28.3,00.0,38.2,31.3,12.3,0000.0,0012.30,0004.70,0003.17
